Time,TemperatureF,DewpointF,PressureIn,WindDirection,WindDirectionDegrees,WindSpeedMPH,WindSpeedGustMPH,Humidity,HourlyPrecipIn,Conditions,Clouds,dailyrainin,SoftwareType,DateUTC
2013-06-21 00:05:00,62.7,56.4,30.26,NW,308,0.0,1.0,80,0.00,,,0.00,Wunderground v.1.15,2013-06-21 04:05:00,
2013-06-21 00:10:00,62.5,56.2,30.26,NW,308,0.0,1.0,80,0.00,,,0.00,Wunderground v.1.15,2013-06-21 04:10:00,
2013-06-21 00:15:00,62.3,56.4,30.26,NW,308,0.0,1.0,81,0.00,,,0.00,Wunderground v.1.15,2013-06-21 04:15:00,
2013-06-21 00:25:00,61.7,56.1,30.26,NW,308,0.0,1.0,82,0.00,,,0.00,Wunderground v.1.15,2013-06-21 04:25:00,
2013-06-21 00:30:00,61.6,56.4,30.26,NW,304,0.0,1.0,83,0.00,,,0.00,Wunderground v.1.15,2013-06-21 04:30:00,
2013-06-21 00:35:00,61.4,56.2,30.26,WNW,302,0.0,1.0,83,0.00,,,0.00,Wunderground v.1.15,2013-06-21 04:35:00,
2013-06-21 00:40:00,61.4,56.2,30.26,SSW,194,0.0,1.0,83,0.00,,,0.00,Wunderground v.1.15,2013-06-21 04:40:00,
2013-06-21 00:45:00,61.2,56.0,30.26,SSW,194,0.0,1.0,83,0.00,,,0.00,Wunderground v.1.15,2013-06-21 04:45:00,
2013-06-21 00:50:00,61.1,55.9,30.26,SSW,194,0.0,1.0,83,0.00,,,0.00,Wunderground v.1.15,2013-06-21 04:50:00,
2013-06-21 00:55:00,60.9,55.7,30.26,SSW,195,0.0,1.0,83,0.00,,,0.00,Wunderground v.1.15,2013-06-21 04:55:00,
2013-06-21 01:05:00,60.6,55.7,30.25,SSW,194,0.0,1.0,84,0.00,,,0.00,Wunderground v.1.15,2013-06-21 05:05:00,
2013-06-21 01:10:00,60.5,55.3,30.25,SE,145,0.0,1.0,83,0.00,,,0.00,Wunderground v.1.15,2013-06-21 05:10:00,
2013-06-21 01:15:00,60.4,55.5,30.25,SE,145,0.0,1.0,84,0.00,,,0.00,Wunderground v.1.15,2013-06-21 05:15:00,
2013-06-21 01:20:00,60.3,55.8,30.25,SE,145,0.0,1.0,85,0.00,,,0.00,Wunderground v.1.15,2013-06-21 05:20:00,
2013-06-21 01:25:00,60.0,55.5,30.25,SE,145,0.0,1.0,85,0.00,,,0.00,Wunderground v.1.15,2013-06-21 05:25:00,
2013-06-21 01:30:00,59.7,55.2,30.25,SE,145,0.0,1.0,85,0.00,,,0.00,Wunderground v.1.15,2013-06-21 05:30:00,
2013-06-21 01:35:00,59.5,55.3,30.25,SE,145,0.0,1.0,86,0.00,,,0.00,Wunderground v.1.15,2013-06-21 05:35:00,
2013-06-21 01:40:00,59.3,55.1,30.25,SE,145,0.0,1.0,86,0.00,,,0.00,Wunderground v.1.15,2013-06-21 05:40:00,
2013-06-21 01:45:00,59.3,55.1,30.25,SE,145,0.0,1.0,86,0.00,,,0.00,Wunderground v.1.15,2013-06-21 05:45:00,
2013-06-21 01:50:00,59.2,55.0,30.25,SE,131,0.0,1.0,86,0.00,,,0.00,Wunderground v.1.15,2013-06-21 05:50:00,
2013-06-21 02:00:00,59.5,54.7,30.25,NE,34,0.0,1.0,84,0.00,,,0.00,Wunderground v.1.15,2013-06-21 06:00:00,
2013-06-21 02:05:00,59.5,54.7,30.25,NE,34,0.0,1.0,84,0.00,,,0.00,Wunderground v.1.15,2013-06-21 06:05:00,
2013-06-21 02:10:00,59.4,54.6,30.25,NE,34,0.0,1.0,84,0.00,,,0.00,Wunderground v.1.15,2013-06-21 06:10:00,
2013-06-21 02:15:00,59.4,54.6,30.25,NE,34,0.0,1.0,84,0.00,,,0.00,Wunderground v.1.15,2013-06-21 06:15:00,
2013-06-21 02:20:00,59.3,54.5,30.25,NE,34,0.0,1.0,84,0.00,,,0.00,Wunderground v.1.15,2013-06-21 06:20:00,
2013-06-21 02:25:00,59.2,54.7,30.26,NE,34,0.0,1.0,85,0.00,,,0.00,Wunderground v.1.15,2013-06-21 06:25:00,
2013-06-21 02:30:00,59.0,54.5,30.25,NE,34,0.0,1.0,85,0.00,,,0.00,Wunderground v.1.15,2013-06-21 06:30:00,
2013-06-21 02:35:00,58.8,54.6,30.25,NE,36,0.0,1.0,86,0.00,,,0.00,Wunderground v.1.15,2013-06-21 06:35:00,
2013-06-21 02:40:00,58.7,54.2,30.24,SSE,153,0.0,1.0,85,0.00,,,0.00,Wunderground v.1.15,2013-06-21 06:40:00,
2013-06-21 02:45:00,58.7,54.2,30.24,SSW,200,0.0,1.0,85,0.00,,,0.00,Wunderground v.1.15,2013-06-21 06:45:00,
2013-06-21 03:00:00,59.0,53.8,30.24,ESE,120,0.0,1.0,83,0.00,,,0.00,Wunderground v.1.15,2013-06-21 07:00:00,
2013-06-21 03:09:00,59.2,53.7,30.24,SW,217,0.0,1.0,82,0.00,,,0.00,Wunderground v.1.15,2013-06-21 07:09:00,
2013-06-21 03:15:00,59.3,53.8,30.24,North,11,0.0,1.0,82,0.00,,,0.00,Wunderground v.1.15,2013-06-21 07:15:00,
2013-06-21 03:20:00,59.3,53.8,30.24,ENE,61,0.0,1.0,82,0.00,,,0.00,Wunderground v.1.15,2013-06-21 07:20:00,
2013-06-21 03:30:00,59.2,53.4,30.24,ESE,102,0.0,1.0,81,0.00,,,0.00,Wunderground v.1.15,2013-06-21 07:30:00,
2013-06-21 03:35:00,59.2,53.4,30.24,SE,145,0.0,1.0,81,0.00,,,0.00,Wunderground v.1.15,2013-06-21 07:35:00,
2013-06-21 03:40:00,59.3,53.5,30.24,NNW,328,0.0,1.0,81,0.00,,,0.00,Wunderground v.1.15,2013-06-21 07:40:00,
2013-06-21 03:45:00,59.2,53.4,30.24,NNE,22,0.0,1.0,81,0.00,,,0.00,Wunderground v.1.15,2013-06-21 07:45:00,
2013-06-21 03:50:00,59.2,53.4,30.24,SE,139,0.0,1.0,81,0.00,,,0.00,Wunderground v.1.15,2013-06-21 07:50:00,
2013-06-21 03:55:00,59.2,53.4,30.24,NE,41,0.0,1.0,81,0.00,,,0.00,Wunderground v.1.15,2013-06-21 07:55:00,
2013-06-21 04:05:00,59.1,53.3,30.24,SSE,165,0.0,1.0,81,0.00,,,0.00,Wunderground v.1.15,2013-06-21 08:05:00,
2013-06-21 04:10:00,58.9,53.4,30.24,East,98,0.0,1.0,82,0.00,,,0.00,Wunderground v.1.15,2013-06-21 08:10:00,
2013-06-21 04:15:00,58.8,53.3,30.24,North,4,0.0,1.0,82,0.00,,,0.00,Wunderground v.1.15,2013-06-21 08:15:00,
2013-06-21 04:19:00,58.8,53.3,30.24,East,101,0.0,1.0,82,0.00,,,0.00,Wunderground v.1.15,2013-06-21 08:19:00,
2013-06-21 04:25:00,58.6,53.5,30.24,ENE,76,0.0,1.0,83,0.00,,,0.00,Wunderground v.1.15,2013-06-21 08:25:00,
2013-06-21 04:35:00,58.4,53.3,30.24,NNE,27,0.0,1.0,83,0.00,,,0.00,Wunderground v.1.15,2013-06-21 08:35:00,
2013-06-21 04:40:00,58.4,53.3,30.24,North,353,0.0,1.0,83,0.00,,,0.00,Wunderground v.1.15,2013-06-21 08:40:00,
2013-06-21 04:45:00,58.4,53.3,30.24,North,360,0.0,1.0,83,0.00,,,0.00,Wunderground v.1.15,2013-06-21 08:45:00,
2013-06-21 04:50:00,58.4,53.6,30.25,NNE,13,0.0,1.0,84,0.00,,,0.00,Wunderground v.1.15,2013-06-21 08:50:00,
2013-06-21 04:55:00,58.4,53.6,30.25,South,170,0.0,1.0,84,0.00,,,0.00,Wunderground v.1.15,2013-06-21 08:55:00,
2013-06-21 05:05:00,58.3,53.5,30.25,East,87,0.0,1.0,84,0.00,,,0.00,Wunderground v.1.15,2013-06-21 09:05:00,
2013-06-21 05:10:00,58.1,53.6,30.25,NNE,32,0.0,1.0,85,0.00,,,0.00,Wunderground v.1.15,2013-06-21 09:10:00,
2013-06-21 05:15:00,58.1,53.6,30.25,SSE,148,0.0,1.0,85,0.00,,,0.00,Wunderground v.1.15,2013-06-21 09:15:00,
2013-06-21 05:20:00,58.1,53.6,30.25,SW,233,0.0,1.0,85,0.00,,,0.00,Wunderground v.1.15,2013-06-21 09:20:00,
2013-06-21 05:25:00,58.0,53.5,30.25,South,187,0.0,1.0,85,0.00,,,0.00,Wunderground v.1.15,2013-06-21 09:25:00,
2013-06-21 05:29:00,57.9,53.4,30.25,South,187,0.0,1.0,85,0.00,,,0.00,Wunderground v.1.15,2013-06-21 09:29:00,
2013-06-21 05:35:00,57.8,53.6,30.25,ENE,60,0.0,1.0,86,0.00,,,0.00,Wunderground v.1.15,2013-06-21 09:35:00,
2013-06-21 05:40:00,57.7,53.5,30.25,ENE,61,0.0,1.0,86,0.00,,,0.00,Wunderground v.1.15,2013-06-21 09:40:00,
2013-06-21 05:45:00,57.6,53.4,30.25,NNE,18,0.0,1.0,86,0.00,,,0.00,Wunderground v.1.15,2013-06-21 09:45:00,
2013-06-21 05:50:00,57.6,53.8,30.25,NW,315,0.0,1.0,87,0.00,,,0.00,Wunderground v.1.15,2013-06-21 09:50:00,
2013-06-21 05:55:00,57.7,53.9,30.26,NNW,347,0.0,1.0,87,0.00,,,0.00,Wunderground v.1.15,2013-06-21 09:55:00,
2013-06-21 06:00:00,57.7,53.9,30.25,NNW,347,0.0,1.0,87,0.00,,,0.00,Wunderground v.1.15,2013-06-21 10:00:00,
2013-06-21 06:10:00,57.9,54.1,30.26,North,354,0.0,1.0,87,0.00,,,0.00,Wunderground v.1.15,2013-06-21 10:10:00,
2013-06-21 06:15:00,57.9,54.1,30.26,North,354,0.0,1.0,87,0.00,,,0.00,Wunderground v.1.15,2013-06-21 10:15:00,
2013-06-21 06:20:00,58.0,54.2,30.26,North,354,0.0,1.0,87,0.00,,,0.00,Wunderground v.1.15,2013-06-21 10:20:00,
2013-06-21 06:30:00,58.2,54.3,30.26,North,354,0.0,1.0,87,0.00,,,0.00,Wunderground v.1.15,2013-06-21 10:30:00,
2013-06-21 06:35:00,58.4,54.5,30.26,ESE,113,0.0,1.0,87,0.00,,,0.00,Wunderground v.1.15,2013-06-21 10:35:00,
2013-06-21 06:40:00,58.6,54.7,30.26,ENE,68,0.0,1.0,87,0.00,,,0.00,Wunderground v.1.15,2013-06-21 10:40:00,
2013-06-21 06:45:00,58.8,54.6,30.26,NNW,336,0.0,1.0,86,0.00,,,0.00,Wunderground v.1.15,2013-06-21 10:45:00,
2013-06-21 06:50:00,59.1,54.9,30.26,NNW,335,0.0,1.0,86,0.00,,,0.00,Wunderground v.1.15,2013-06-21 10:50:00,
2013-06-21 07:00:00,59.7,55.2,30.26,NNW,343,0.0,1.0,85,0.00,,,0.00,Wunderground v.1.15,2013-06-21 11:00:00,
2013-06-21 07:10:00,60.2,55.7,30.26,WSW,250,0.0,1.0,85,0.00,,,0.00,Wunderground v.1.15,2013-06-21 11:10:00,
2013-06-21 07:15:00,60.5,55.6,30.26,WNW,290,0.0,1.0,84,0.00,,,0.00,Wunderground v.1.15,2013-06-21 11:15:00,
2013-06-21 07:20:00,60.8,55.9,30.26,SE,136,0.0,1.0,84,0.00,,,0.00,Wunderground v.1.15,2013-06-21 11:20:00,
2013-06-21 07:30:00,61.5,56.0,30.26,West,273,0.0,1.0,82,0.00,,,0.00,Wunderground v.1.15,2013-06-21 11:30:00,
2013-06-21 07:35:00,61.8,56.2,30.26,NNW,332,0.0,1.0,82,0.00,,,0.00,Wunderground v.1.15,2013-06-21 11:35:00,
2013-06-21 07:40:00,62.2,56.3,30.26,West,265,0.0,1.0,81,0.00,,,0.00,Wunderground v.1.15,2013-06-21 11:40:00,
2013-06-21 07:45:00,62.6,56.3,30.26,West,266,0.0,1.0,80,0.00,,,0.00,Wunderground v.1.15,2013-06-21 11:45:00,
2013-06-21 07:50:00,63.0,56.7,30.26,SW,230,0.0,1.0,80,0.00,,,0.00,Wunderground v.1.15,2013-06-21 11:50:00,
2013-06-21 07:55:00,63.3,57.0,30.25,SSE,155,0.0,1.0,80,0.00,,,0.00,Wunderground v.1.15,2013-06-21 11:55:00,
2013-06-21 08:00:00,63.7,57.1,30.25,West,262,0.0,1.0,79,0.00,,,0.00,Wunderground v.1.15,2013-06-21 12:00:00,
2013-06-21 08:05:00,64.1,57.1,30.25,West,280,0.0,1.0,78,0.00,,,0.00,Wunderground v.1.15,2013-06-21 12:05:00,
2013-06-21 08:15:00,64.9,57.5,30.25,West,273,1.0,1.0,77,0.00,,,0.00,Wunderground v.1.15,2013-06-21 12:15:00,
2013-06-21 08:20:00,65.1,57.7,30.25,WNW,290,1.0,1.0,77,0.00,,,0.00,Wunderground v.1.15,2013-06-21 12:20:00,
2013-06-21 08:25:00,65.6,58.2,30.25,WNW,284,1.0,1.0,77,0.00,,,0.00,Wunderground v.1.15,2013-06-21 12:25:00,
2013-06-21 08:30:00,66.0,58.2,30.25,SSE,162,1.0,1.0,76,0.00,,,0.00,Wunderground v.1.15,2013-06-21 12:30:00,
2013-06-21 08:35:00,66.4,58.2,30.25,WSW,238,1.0,1.0,75,0.00,,,0.00,Wunderground v.1.15,2013-06-21 12:35:00,
2013-06-21 08:45:00,67.0,59.2,30.25,ESE,123,1.0,1.0,76,0.00,,,0.00,Wunderground v.1.15,2013-06-21 12:45:00,
2013-06-21 08:50:00,67.4,58.8,30.25,NW,316,0.0,1.0,74,0.00,,,0.00,Wunderground v.1.15,2013-06-21 12:50:00,
2013-06-21 08:55:00,67.7,59.1,30.25,WNW,287,0.0,1.0,74,0.00,,,0.00,Wunderground v.1.15,2013-06-21 12:55:00,
2013-06-21 09:00:00,68.2,60.0,30.25,SSE,160,1.0,2.0,75,0.00,,,0.00,Wunderground v.1.15,2013-06-21 13:00:00,
2013-06-21 09:05:00,68.5,59.9,30.25,West,278,1.0,2.0,74,0.00,,,0.00,Wunderground v.1.15,2013-06-21 13:05:00,
2013-06-21 09:15:00,69.3,59.9,30.25,WNW,300,1.0,2.0,72,0.00,,,0.00,Wunderground v.1.15,2013-06-21 13:15:00,
2013-06-21 09:20:00,69.7,60.3,30.24,NW,314,1.0,1.0,72,0.00,,,0.00,Wunderground v.1.15,2013-06-21 13:20:00,
2013-06-21 09:25:00,70.1,60.7,30.24,West,267,1.0,1.0,72,0.00,,,0.00,Wunderground v.1.15,2013-06-21 13:25:00,
2013-06-21 09:30:00,70.5,60.2,30.24,WNW,295,0.0,1.0,70,0.00,,,0.00,Wunderground v.1.15,2013-06-21 13:30:00,
2013-06-21 09:35:00,70.9,61.0,30.24,West,259,0.0,1.0,71,0.00,,,0.00,Wunderground v.1.15,2013-06-21 13:35:00,
2013-06-21 09:40:00,71.2,60.9,30.24,North,359,0.0,1.0,70,0.00,,,0.00,Wunderground v.1.15,2013-06-21 13:40:00,
2013-06-21 09:50:00,71.9,60.8,30.25,NW,308,1.0,2.0,68,0.00,,,0.00,Wunderground v.1.15,2013-06-21 13:50:00,
2013-06-21 09:55:00,72.3,60.3,30.25,NE,56,1.0,2.0,66,0.00,,,0.00,Wunderground v.1.15,2013-06-21 13:55:00,
2013-06-21 10:00:00,72.6,61.0,30.25,WSW,245,1.0,1.0,67,0.00,,,0.00,Wunderground v.1.15,2013-06-21 14:00:00,
2013-06-21 10:10:00,73.1,61.1,30.25,West,259,1.0,1.0,66,0.00,,,0.00,Wunderground v.1.15,2013-06-21 14:10:00,
2013-06-21 10:20:00,73.8,61.3,30.25,SSW,211,1.0,2.0,65,0.00,,,0.00,Wunderground v.1.15,2013-06-21 14:20:00,
2013-06-21 10:25:00,74.0,61.5,30.25,NNW,327,1.0,2.0,65,0.00,,,0.00,Wunderground v.1.15,2013-06-21 14:25:00,
2013-06-21 10:30:00,74.3,61.3,30.25,NNW,328,1.0,3.0,64,0.00,,,0.00,Wunderground v.1.15,2013-06-21 14:30:00,
2013-06-21 10:35:00,74.8,61.8,30.25,West,259,1.0,3.0,64,0.00,,,0.00,Wunderground v.1.15,2013-06-21 14:35:00,
2013-06-21 10:40:00,75.1,61.6,30.25,NNE,25,1.0,1.0,63,0.00,,,0.00,Wunderground v.1.15,2013-06-21 14:40:00,
2013-06-21 10:50:00,75.6,61.7,30.25,NW,315,1.0,1.0,62,0.00,,,0.00,Wunderground v.1.15,2013-06-21 14:50:00,
2013-06-21 10:55:00,75.9,61.0,30.25,WNW,293,1.0,2.0,60,0.00,,,0.00,Wunderground v.1.15,2013-06-21 14:55:00,
2013-06-21 11:00:00,76.2,62.7,30.26,West,266,1.0,1.0,63,0.00,,,0.00,Wunderground v.1.15,2013-06-21 15:00:00,
2013-06-21 11:05:00,76.7,61.8,30.26,West,276,1.0,3.0,60,0.00,,,0.00,Wunderground v.1.15,2013-06-21 15:05:00,
2013-06-21 11:15:00,77.1,60.7,30.26,WNW,296,1.0,1.0,57,0.00,,,0.00,Wunderground v.1.15,2013-06-21 15:15:00,
2013-06-21 11:20:00,77.2,60.3,30.25,NW,316,1.0,1.0,56,0.00,,,0.00,Wunderground v.1.15,2013-06-21 15:20:00,
2013-06-21 11:30:00,77.8,59.8,30.25,North,355,1.0,5.0,54,0.00,,,0.00,Wunderground v.1.15,2013-06-21 15:30:00,
2013-06-21 11:40:00,77.5,60.6,30.25,West,280,1.0,1.0,56,0.00,,,0.00,Wunderground v.1.15,2013-06-21 15:40:00,
2013-06-21 11:50:00,77.8,59.8,30.25,ESE,123,1.0,1.0,54,0.00,,,0.00,Wunderground v.1.15,2013-06-21 15:50:00,
2013-06-21 11:59:00,78.2,60.2,30.25,WNW,287,1.0,1.0,54,0.00,,,0.00,Wunderground v.1.15,2013-06-21 15:59:00,
2013-06-21 12:05:00,78.6,60.6,30.25,WNW,302,1.0,2.0,54,0.00,,,0.00,Wunderground v.1.15,2013-06-21 16:05:00,
2013-06-21 12:15:00,79.5,60.9,30.25,WSW,246,1.0,2.0,53,0.00,,,0.00,Wunderground v.1.15,2013-06-21 16:15:00,
2013-06-21 12:25:00,79.8,60.1,30.24,SW,229,1.0,1.0,51,0.00,,,0.00,Wunderground v.1.15,2013-06-21 16:25:00,
2013-06-21 12:35:00,80.1,60.3,30.24,WSW,253,1.0,1.0,51,0.00,,,0.00,Wunderground v.1.15,2013-06-21 16:35:00,
2013-06-21 12:40:00,80.4,60.1,30.24,West,276,1.0,1.0,50,0.00,,,0.00,Wunderground v.1.15,2013-06-21 16:40:00,
2013-06-21 12:50:00,80.8,59.9,30.24,NW,322,1.0,2.0,49,0.00,,,0.00,Wunderground v.1.15,2013-06-21 16:50:00,
2013-06-21 12:55:00,81.0,59.5,30.24,NW,326,2.0,3.0,48,0.00,,,0.00,Wunderground v.1.15,2013-06-21 16:55:00,
2013-06-21 13:05:00,81.0,59.5,30.24,WNW,288,2.0,2.0,48,0.00,,,0.00,Wunderground v.1.15,2013-06-21 17:05:00,
2013-06-21 13:10:00,81.3,60.3,30.24,NW,316,2.0,2.0,49,0.00,,,0.00,Wunderground v.1.15,2013-06-21 17:10:00,
2013-06-21 13:20:00,81.1,60.1,30.24,WNW,302,1.0,4.0,49,0.00,,,0.00,Wunderground v.1.15,2013-06-21 17:20:00,
2013-06-21 13:30:00,81.2,59.6,30.23,SE,146,1.0,1.0,48,0.00,,,0.00,Wunderground v.1.15,2013-06-21 17:30:00,
2013-06-21 13:50:00,82.7,59.8,30.23,NW,315,2.0,2.0,46,0.00,,,0.00,Wunderground v.1.15,2013-06-21 17:50:00,
2013-06-21 13:55:00,82.4,58.9,30.23,WNW,302,2.0,3.0,45,0.00,,,0.00,Wunderground v.1.15,2013-06-21 17:55:00,
2013-06-21 14:05:00,82.6,58.5,30.22,ESE,107,2.0,2.0,44,0.00,,,0.00,Wunderground v.1.15,2013-06-21 18:05:00,
2013-06-21 14:10:00,82.7,58.6,30.22,ENE,58,1.0,1.0,44,0.00,,,0.00,Wunderground v.1.15,2013-06-21 18:10:00,
2013-06-21 14:20:00,81.7,59.5,30.22,NW,315,1.0,2.0,47,0.00,,,0.00,Wunderground v.1.15,2013-06-21 18:20:00,
2013-06-21 14:25:00,81.4,59.2,30.22,West,262,1.0,2.0,47,0.00,,,0.00,Wunderground v.1.15,2013-06-21 18:25:00,
2013-06-21 14:30:00,80.9,58.2,30.22,SW,233,1.0,1.0,46,0.00,,,0.00,Wunderground v.1.15,2013-06-21 18:30:00,
2013-06-21 14:40:00,81.5,60.5,30.22,SSW,197,1.0,1.0,49,0.00,,,0.00,Wunderground v.1.15,2013-06-21 18:40:00,
2013-06-21 14:45:00,82.2,58.1,30.22,West,268,1.0,1.0,44,0.00,,,0.00,Wunderground v.1.15,2013-06-21 18:45:00,
2013-06-21 14:50:00,82.4,58.3,30.22,NNW,330,2.0,2.0,44,0.00,,,0.00,Wunderground v.1.15,2013-06-21 18:50:00,
2013-06-21 14:55:00,82.6,59.1,30.22,WSW,253,2.0,2.0,45,0.00,,,0.00,Wunderground v.1.15,2013-06-21 18:55:00,
2013-06-21 15:00:00,83.2,59.6,30.22,WNW,300,1.0,2.0,45,0.00,,,0.00,Wunderground v.1.15,2013-06-21 19:00:00,
2013-06-21 15:05:00,83.9,57.7,30.22,NW,321,1.0,2.0,41,0.00,,,0.00,Wunderground v.1.15,2013-06-21 19:05:00,
2013-06-21 15:15:00,83.8,55.5,30.21,SW,236,1.0,2.0,38,0.00,,,0.00,Wunderground v.1.15,2013-06-21 19:15:00,
2013-06-21 15:20:00,84.3,60.0,30.22,WSW,258,1.0,2.0,44,0.00,,,0.00,Wunderground v.1.15,2013-06-21 19:20:00,
2013-06-21 15:30:00,84.1,55.0,30.22,WSW,258,2.0,2.0,37,0.00,,,0.00,Wunderground v.1.15,2013-06-21 19:30:00,
2013-06-21 15:35:00,84.1,55.0,30.22,West,271,2.0,2.0,37,0.00,,,0.00,Wunderground v.1.15,2013-06-21 19:35:00,
2013-06-21 15:40:00,83.7,54.7,30.22,WSW,257,2.0,2.0,37,0.00,,,0.00,Wunderground v.1.15,2013-06-21 19:40:00,
2013-06-21 15:45:00,83.6,54.6,30.22,WSW,251,2.0,2.0,37,0.00,,,0.00,Wunderground v.1.15,2013-06-21 19:45:00,
2013-06-21 15:55:00,84.5,56.1,30.22,ENE,73,1.0,1.0,38,0.00,,,0.00,Wunderground v.1.15,2013-06-21 19:55:00,
2013-06-21 16:00:00,84.4,54.5,30.22,ENE,67,2.0,3.0,36,0.00,,,0.00,Wunderground v.1.15,2013-06-21 20:00:00,
2013-06-21 16:10:00,84.3,54.4,30.22,WSW,242,1.0,2.0,36,0.00,,,0.00,Wunderground v.1.15,2013-06-21 20:10:00,
2013-06-21 16:15:00,84.2,54.4,30.22,West,278,2.0,2.0,36,0.00,,,0.00,Wunderground v.1.15,2013-06-21 20:15:00,
2013-06-21 16:20:00,84.5,55.4,30.21,West,281,2.0,2.0,37,0.00,,,0.00,Wunderground v.1.15,2013-06-21 20:20:00,
2013-06-21 16:25:00,84.7,54.8,30.21,NW,311,1.0,2.0,36,0.00,,,0.00,Wunderground v.1.15,2013-06-21 20:25:00,
2013-06-21 16:30:00,84.8,54.9,30.21,SE,131,1.0,1.0,36,0.00,,,0.00,Wunderground v.1.15,2013-06-21 20:30:00,
2013-06-21 16:35:00,85.0,55.8,30.21,NNE,20,1.0,2.0,37,0.00,,,0.00,Wunderground v.1.15,2013-06-21 20:35:00,
2013-06-21 16:45:00,84.7,54.0,30.20,West,264,1.0,2.0,35,0.00,,,0.00,Wunderground v.1.15,2013-06-21 20:45:00,
2013-06-21 16:55:00,84.5,53.0,30.20,SW,232,2.0,2.0,34,0.00,,,0.00,Wunderground v.1.15,2013-06-21 20:55:00,
2013-06-21 17:00:00,84.5,51.4,30.20,SW,231,2.0,2.0,32,0.00,,,0.00,Wunderground v.1.15,2013-06-21 21:00:00,
2013-06-21 17:10:00,84.5,53.0,30.20,WNW,302,1.0,3.0,34,0.00,,,0.00,Wunderground v.1.15,2013-06-21 21:10:00,
2013-06-21 17:14:00,84.5,53.8,30.20,WNW,284,1.0,3.0,35,0.00,,,0.00,Wunderground v.1.15,2013-06-21 21:14:00,
2013-06-21 17:20:00,84.6,53.1,30.20,West,262,1.0,1.0,34,0.00,,,0.00,Wunderground v.1.15,2013-06-21 21:20:00,
2013-06-21 17:30:00,84.9,53.4,30.20,West,260,1.0,1.0,34,0.00,,,0.00,Wunderground v.1.15,2013-06-21 21:30:00,
2013-06-21 17:35:00,84.8,52.5,30.20,West,272,1.0,1.0,33,0.00,,,0.00,Wunderground v.1.15,2013-06-21 21:35:00,
2013-06-21 17:45:00,84.8,55.6,30.20,NW,316,1.0,3.0,37,0.00,,,0.00,Wunderground v.1.15,2013-06-21 21:45:00,
2013-06-21 17:55:00,84.7,56.3,30.20,West,280,1.0,2.0,38,0.00,,,0.00,Wunderground v.1.15,2013-06-21 21:55:00,
2013-06-21 18:00:00,84.5,55.4,30.20,NW,321,1.0,1.0,37,0.00,,,0.00,Wunderground v.1.15,2013-06-21 22:00:00,
2013-06-21 18:05:00,84.5,54.6,30.20,West,259,1.0,1.0,36,0.00,,,0.00,Wunderground v.1.15,2013-06-21 22:05:00,
2013-06-21 18:10:00,84.7,56.3,30.20,NNW,346,1.0,1.0,38,0.00,,,0.00,Wunderground v.1.15,2013-06-21 22:10:00,
2013-06-21 18:15:00,84.9,58.6,30.20,SE,131,0.0,1.0,41,0.00,,,0.00,Wunderground v.1.15,2013-06-21 22:15:00,
2013-06-21 18:25:00,84.9,58.6,30.20,West,274,1.0,2.0,41,0.00,,,0.00,Wunderground v.1.15,2013-06-21 22:25:00,
2013-06-21 18:35:00,83.5,59.3,30.21,West,274,0.0,1.0,44,0.00,,,0.00,Wunderground v.1.15,2013-06-21 22:35:00,
2013-06-21 18:40:00,83.3,59.1,30.21,West,265,0.0,1.0,44,0.00,,,0.00,Wunderground v.1.15,2013-06-21 22:40:00,
2013-06-21 18:45:00,83.5,59.9,30.21,SE,145,0.0,1.0,45,0.00,,,0.00,Wunderground v.1.15,2013-06-21 22:45:00,
2013-06-21 18:50:00,83.7,60.7,30.21,SW,220,0.0,1.0,46,0.00,,,0.00,Wunderground v.1.15,2013-06-21 22:50:00,
2013-06-21 18:55:00,84.0,61.6,30.21,SSE,168,0.0,1.0,47,0.00,,,0.00,Wunderground v.1.15,2013-06-21 22:55:00,
2013-06-21 19:00:00,84.3,61.9,30.21,SW,226,0.0,1.0,47,0.00,,,0.00,Wunderground v.1.15,2013-06-21 23:00:00,
2013-06-21 19:10:00,84.3,61.9,30.21,West,269,0.0,1.0,47,0.00,,,0.00,Wunderground v.1.15,2013-06-21 23:10:00,
2013-06-21 19:15:00,83.8,62.0,30.22,West,268,0.0,1.0,48,0.00,,,0.00,Wunderground v.1.15,2013-06-21 23:15:00,
2013-06-21 19:20:00,83.8,63.2,30.21,West,269,0.0,1.0,50,0.00,,,0.00,Wunderground v.1.15,2013-06-21 23:20:00,
2013-06-21 19:25:00,83.9,63.3,30.21,West,269,0.0,1.0,50,0.00,,,0.00,Wunderground v.1.15,2013-06-21 23:25:00,
2013-06-21 19:30:00,83.2,63.2,30.21,West,267,0.0,1.0,51,0.00,,,0.00,Wunderground v.1.15,2013-06-21 23:30:00,
2013-06-21 19:40:00,81.6,63.3,30.21,West,266,0.0,1.0,54,0.00,,,0.00,Wunderground v.1.15,2013-06-21 23:40:00,
2013-06-21 19:45:00,80.4,63.3,30.22,West,267,0.0,1.0,56,0.00,,,0.00,Wunderground v.1.15,2013-06-21 23:45:00,
2013-06-21 19:50:00,79.3,62.7,30.22,West,267,0.0,1.0,57,0.00,,,0.00,Wunderground v.1.15,2013-06-21 23:50:00,
2013-06-21 19:55:00,78.3,62.8,30.22,West,267,0.0,1.0,59,0.00,,,0.00,Wunderground v.1.15,2013-06-21 23:55:00,
2013-06-21 20:00:00,77.5,63.5,30.22,West,266,0.0,1.0,62,0.00,,,0.00,Wunderground v.1.15,2013-06-22 00:00:00,
2013-06-21 20:10:00,76.0,63.4,30.22,West,267,0.0,1.0,65,0.00,,,0.00,Wunderground v.1.15,2013-06-22 00:10:00,
2013-06-21 20:15:00,75.2,63.1,30.22,West,267,0.0,1.0,66,0.00,,,0.00,Wunderground v.1.15,2013-06-22 00:15:00,
2013-06-21 20:20:00,74.5,63.7,30.22,West,267,0.0,1.0,69,0.00,,,0.00,Wunderground v.1.15,2013-06-22 00:20:00,
2013-06-21 20:25:00,74.0,63.2,30.22,West,267,0.0,1.0,69,0.00,,,0.00,Wunderground v.1.15,2013-06-22 00:25:00,
2013-06-21 20:29:00,73.3,62.9,30.22,West,267,0.0,1.0,70,0.00,,,0.00,Wunderground v.1.15,2013-06-22 00:29:00,
2013-06-21 20:35:00,72.8,62.8,30.21,West,267,0.0,1.0,71,0.00,,,0.00,Wunderground v.1.15,2013-06-22 00:35:00,
2013-06-21 20:40:00,72.2,63.1,30.21,West,266,0.0,1.0,73,0.00,,,0.00,Wunderground v.1.15,2013-06-22 00:40:00,
2013-06-21 20:45:00,71.7,63.4,30.21,West,267,0.0,1.0,75,0.00,,,0.00,Wunderground v.1.15,2013-06-22 00:45:00,
2013-06-21 20:50:00,71.2,63.2,30.22,WSW,257,0.0,1.0,76,0.00,,,0.00,Wunderground v.1.15,2013-06-22 00:50:00,
2013-06-21 20:55:00,70.9,63.3,30.22,WSW,250,0.0,1.0,77,0.00,,,0.00,Wunderground v.1.15,2013-06-22 00:55:00,
2013-06-21 21:05:00,70.3,63.1,30.22,WSW,250,0.0,1.0,78,0.00,,,0.00,Wunderground v.1.15,2013-06-22 01:05:00,
2013-06-21 21:15:00,69.9,63.1,30.22,WSW,250,0.0,1.0,79,0.00,,,0.00,Wunderground v.1.15,2013-06-22 01:15:00,
2013-06-21 21:20:00,69.7,63.3,30.22,WSW,250,0.0,1.0,80,0.00,,,0.00,Wunderground v.1.15,2013-06-22 01:20:00,
2013-06-21 21:25:00,69.4,63.0,30.22,WSW,250,0.0,1.0,80,0.00,,,0.00,Wunderground v.1.15,2013-06-22 01:25:00,
2013-06-21 21:30:00,69.1,62.7,30.22,WSW,250,0.0,1.0,80,0.00,,,0.00,Wunderground v.1.15,2013-06-22 01:30:00,
2013-06-21 21:34:00,68.9,62.5,30.23,WSW,250,0.0,1.0,80,0.00,,,0.00,Wunderground v.1.15,2013-06-22 01:34:00,
2013-06-21 21:40:00,68.6,62.5,30.23,WSW,250,0.0,1.0,81,0.00,,,0.00,Wunderground v.1.15,2013-06-22 01:40:00,
2013-06-21 21:45:00,68.3,62.6,30.23,WSW,250,0.0,1.0,82,0.00,,,0.00,Wunderground v.1.15,2013-06-22 01:45:00,
2013-06-21 21:50:00,68.2,62.8,30.23,WSW,250,0.0,1.0,83,0.00,,,0.00,Wunderground v.1.15,2013-06-22 01:50:00,
2013-06-21 21:55:00,68.0,62.6,30.23,WSW,250,0.0,1.0,83,0.00,,,0.00,Wunderground v.1.15,2013-06-22 01:55:00,
2013-06-21 22:00:00,67.8,62.8,30.23,WSW,250,0.0,1.0,84,0.00,,,0.00,Wunderground v.1.15,2013-06-22 02:00:00,
2013-06-21 22:05:00,67.7,62.7,30.23,WSW,250,0.0,1.0,84,0.00,,,0.00,Wunderground v.1.15,2013-06-22 02:05:00,
2013-06-21 22:15:00,67.4,62.7,30.23,WSW,250,0.0,1.0,85,0.00,,,0.00,Wunderground v.1.15,2013-06-22 02:15:00,
2013-06-21 22:20:00,67.2,62.9,30.23,WSW,250,0.0,1.0,86,0.00,,,0.00,Wunderground v.1.15,2013-06-22 02:20:00,
2013-06-21 22:25:00,67.0,62.7,30.23,WSW,251,0.0,1.0,86,0.00,,,0.00,Wunderground v.1.15,2013-06-22 02:25:00,
2013-06-21 22:30:00,66.9,62.6,30.23,WSW,250,0.0,1.0,86,0.00,,,0.00,Wunderground v.1.15,2013-06-22 02:30:00,
2013-06-21 22:35:00,66.7,62.4,30.23,WSW,250,0.0,1.0,86,0.00,,,0.00,Wunderground v.1.15,2013-06-22 02:35:00,
2013-06-21 22:39:00,66.6,62.6,30.23,WSW,250,0.0,1.0,87,0.00,,,0.00,Wunderground v.1.15,2013-06-22 02:39:00,
2013-06-21 22:45:00,66.8,62.8,30.23,WSW,250,0.0,1.0,87,0.00,,,0.00,Wunderground v.1.15,2013-06-22 02:45:00,
2013-06-21 22:50:00,67.1,62.8,30.23,WSW,250,0.0,1.0,86,0.00,,,0.00,Wunderground v.1.15,2013-06-22 02:50:00,
2013-06-21 22:55:00,67.1,62.8,30.23,WSW,250,0.0,1.0,86,0.00,,,0.00,Wunderground v.1.15,2013-06-22 02:55:00,
2013-06-21 23:00:00,67.0,62.7,30.22,WSW,250,0.0,1.0,86,0.00,,,0.00,Wunderground v.1.15,2013-06-22 03:00:00,
2013-06-21 23:05:00,66.8,62.5,30.23,WSW,250,0.0,1.0,86,0.00,,,0.00,Wunderground v.1.15,2013-06-22 03:05:00,
2013-06-21 23:10:00,66.5,62.5,30.23,WSW,250,0.0,1.0,87,0.00,,,0.00,Wunderground v.1.15,2013-06-22 03:10:00,
2013-06-21 23:20:00,66.3,62.0,30.23,SE,129,0.0,1.0,86,0.00,,,0.00,Wunderground v.1.15,2013-06-22 03:20:00,
2013-06-21 23:25:00,66.3,62.3,30.23,SE,129,0.0,1.0,87,0.00,,,0.00,Wunderground v.1.15,2013-06-22 03:25:00,
2013-06-21 23:30:00,66.2,61.9,30.23,SE,130,0.0,1.0,86,0.00,,,0.00,Wunderground v.1.15,2013-06-22 03:30:00,
2013-06-21 23:40:00,66.2,61.6,30.23,WNW,290,0.0,1.0,85,0.00,,,0.00,Wunderground v.1.15,2013-06-22 03:40:00,
2013-06-21 23:50:00,66.6,61.3,30.22,West,271,0.0,1.0,83,0.00,,,0.00,Wunderground v.1.15,2013-06-22 03:50:00,